COSMOS 2491 DEB, 47111

Orbit data source: Space-Track

COSMOS 2491 DEB, 47111 is space debris in LEO originally from a launch on Wed, 25 Dec 2013 UTC launched from the Plesetsk Missile And Space Complex (PKMTR). Debris objects in space refer to the collection of defunct objects orbiting the Earth. Examples of debris include non-operational satellites, rocket bodies, and fragments generated from explosions, collisions, or faulty payload assembly.

Loading next visibility...
Identifier
47111, 2013-076AG
Orbit
LEO
Country
Flag of CISCIS
Related business
Manufacturer
TsNIIKhM
Mission
Spacecraft
Bus & Motor
Unknown
Mass
Unknown
Launch date (UTC)
2013-12-25 (12 years ago)
Launch vehicle
Unknown
Launch site
Plesetsk Missile And Space Complex (PKMTR)
Object type
Payload
Rocket body
Debris
Shape & HBR
Unknown shape, 0.1 m
Radar Cross Section
Small (<0.1 m²)

Expand to show TLE details & history
Last TLE update: 1 week ago

TLE from 1 week ago
0 COSMOS 2491 DEB
1 47111U 13076AG  26099.52252387  .00002385  00000-0  13755-1 0  9991
2 47111  82.4443 184.7188 0070603 167.3901 192.8975 12.58924412130611
Epoch: 2026-04-09T12:32Z
TLE epoch observation values (Epoch: 2026-04-09T12:32:26.062Z)
Latitude
-0.00002°
Longitude
158.84088°
Altitude
1,483.856 km
Speed
7.097 km/s
True Right ascension
12h 18m 52s
True Declination
0° 00' 00"
Sunlit
Object was in full shadow at epoch
Visualization orbit readout
Latitude
Unknown
Longitude
Unknown
Altitude
Unknown
Speed
Unknown
Apparent Right ascension
Unknown
Apparent Declination
Unknown
Sunlit
N/A
Visualization observer readout
Local Sidereal Time
05:10:56
Azimuth
Unknown
Elevation
Unknown
Doppler factor
Unknown
Orbital elements
Apogee altitude
1,479.808 km
Perigee altitude
1,369.627 km
Semi-major axis
7,802.855 km
Eccentricity
0.00706
Inclination
82.4443°
RAAN
184.7188°
Arg. of periapsis
167.3901°
True anomaly
192.71845°
Mean anomaly
192.8975°
Eccentric anomaly
192.80782°
Mean motion
3.14893 °/min
Orbital period
114.32 mins
BSTAR
0.013755
Loading maneuver chart data...
Computing Atmospheric mass density...
Loading historical data...
Loading historical data...
Loading historical data...
Loading historical data...
Loading historical data...
Loading historical data...
Loading historical data...

Documentation

Showing up to 5 results
|